Time,TemperatureF,DewpointF,PressureIn,WindDirection,WindDirectionDegrees,WindSpeedMPH,WindSpeedGustMPH,Humidity,HourlyPrecipIn,Conditions,Clouds,dailyrainin,SoftwareType,DateUTC
2013-07-25 00:22:00,65.0,-99.9,-100.00,SSW,203,8.0,9.0,-999,-99.99,,,-99.99,,2013-07-25 04:22:00,
2013-07-25 00:33:00,65.0,-99.9,-100.00,SSW,203,8.0,9.0,-999,-99.99,,,-99.99,,2013-07-25 04:33:00,
2013-07-25 00:40:00,65.0,-99.9,-100.00,SSW,199,11.0,12.0,-999,-99.99,,,-99.99,,2013-07-25 04:40:00,
2013-07-25 01:22:00,65.0,-99.9,-100.00,SSW,199,11.0,12.0,-999,-99.99,,,-99.99,,2013-07-25 05:22:00,
2013-07-25 01:32:00,65.0,-99.9,-100.00,SSW,199,11.0,12.0,-999,-99.99,,,-99.99,,2013-07-25 05:32:00,
2013-07-25 01:40:00,64.0,-99.9,-100.00,SW,220,8.0,10.0,-999,-99.99,,,-99.99,,2013-07-25 05:40:00,
2013-07-25 02:12:00,64.0,-99.9,-100.00,SW,220,8.0,10.0,-999,-99.99,,,-99.99,,2013-07-25 06:12:00,
2013-07-25 02:22:00,64.0,-99.9,-100.00,SW,220,8.0,10.0,-999,-99.99,,,-99.99,,2013-07-25 06:22:00,
2013-07-25 02:32:00,64.0,-99.9,-100.00,SW,220,8.0,10.0,-999,-99.99,,,-99.99,,2013-07-25 06:32:00,
2013-07-25 02:40:00,65.0,-99.9,-100.00,SW,226,9.0,12.0,-999,-99.99,,,-99.99,,2013-07-25 06:40:00,
2013-07-25 03:12:00,65.0,-99.9,-100.00,SW,226,9.0,12.0,-999,-99.99,,,-99.99,,2013-07-25 07:12:00,
2013-07-25 03:22:00,65.0,-99.9,-100.00,SW,226,9.0,12.0,-999,-99.99,,,-99.99,,2013-07-25 07:22:00,
2013-07-25 03:33:00,65.0,-99.9,-100.00,SW,226,9.0,12.0,-999,-99.99,,,-99.99,,2013-07-25 07:33:00,
2013-07-25 03:40:00,65.0,-99.9,-100.00,SSW,200,9.0,10.0,-999,-99.99,,,-99.99,,2013-07-25 07:40:00,
2013-07-25 04:12:00,65.0,-99.9,-100.00,SSW,200,9.0,10.0,-999,-99.99,,,-99.99,,2013-07-25 08:12:00,
2013-07-25 04:22:00,65.0,-99.9,-100.00,SSW,200,9.0,10.0,-999,-99.99,,,-99.99,,2013-07-25 08:22:00,
2013-07-25 04:32:00,65.0,-99.9,-100.00,SSW,200,9.0,10.0,-999,-99.99,,,-99.99,,2013-07-25 08:32:00,
2013-07-25 04:40:00,65.0,-99.9,-100.00,SSW,209,10.0,13.0,-999,-99.99,,,-99.99,,2013-07-25 08:40:00,
2013-07-25 05:12:00,65.0,-99.9,-100.00,SSW,209,10.0,13.0,-999,-99.99,,,-99.99,,2013-07-25 09:12:00,
2013-07-25 05:22:00,65.0,-99.9,-100.00,SSW,209,10.0,13.0,-999,-99.99,,,-99.99,,2013-07-25 09:22:00,
2013-07-25 05:33:00,65.0,-99.9,-100.00,SSW,209,10.0,13.0,-999,-99.99,,,-99.99,,2013-07-25 09:33:00,
2013-07-25 05:40:00,65.0,-99.9,-100.00,SSW,202,11.0,14.0,-999,-99.99,,,-99.99,,2013-07-25 09:40:00,
2013-07-25 06:12:00,65.0,-99.9,-100.00,SSW,202,11.0,14.0,-999,-99.99,,,-99.99,,2013-07-25 10:12:00,
2013-07-25 06:22:00,65.0,-99.9,-100.00,SSW,202,11.0,14.0,-999,-99.99,,,-99.99,,2013-07-25 10:22:00,
2013-07-25 06:32:00,65.0,-99.9,-100.00,SSW,202,11.0,14.0,-999,-99.99,,,-99.99,,2013-07-25 10:32:00,
2013-07-25 06:40:00,65.0,-99.9,-100.00,SSW,199,10.0,13.0,-999,-99.99,,,-99.99,,2013-07-25 10:40:00,
2013-07-25 07:22:00,65.0,-99.9,-100.00,SSW,199,10.0,13.0,-999,-99.99,,,-99.99,,2013-07-25 11:22:00,
2013-07-25 07:32:00,65.0,-99.9,-100.00,SSW,199,10.0,13.0,-999,-99.99,,,-99.99,,2013-07-25 11:32:00,
2013-07-25 07:40:00,65.0,-99.9,-100.00,SSW,198,11.0,13.0,-999,-99.99,,,-99.99,,2013-07-25 11:40:00,
2013-07-25 08:23:00,65.0,-99.9,-100.00,SSW,198,11.0,13.0,-999,-99.99,,,-99.99,,2013-07-25 12:23:00,
2013-07-25 08:32:00,65.0,-99.9,-100.00,SSW,198,11.0,13.0,-999,-99.99,,,-99.99,,2013-07-25 12:32:00,
2013-07-25 08:40:00,65.0,-99.9,-100.00,SSW,197,12.0,15.0,-999,-99.99,,,-99.99,,2013-07-25 12:40:00,
2013-07-25 09:22:00,65.0,-99.9,-100.00,SSW,197,12.0,15.0,-999,-99.99,,,-99.99,,2013-07-25 13:22:00,
2013-07-25 09:33:00,65.0,-99.9,-100.00,SSW,197,12.0,15.0,-999,-99.99,,,-99.99,,2013-07-25 13:33:00,
2013-07-25 09:40:00,64.0,-99.9,-100.00,South,191,13.0,14.0,-999,-99.99,,,-99.99,,2013-07-25 13:40:00,
2013-07-25 10:22:00,64.0,-99.9,-100.00,South,191,13.0,14.0,-999,-99.99,,,-99.99,,2013-07-25 14:22:00,
2013-07-25 10:33:00,64.0,-99.9,-100.00,South,191,13.0,14.0,-999,-99.99,,,-99.99,,2013-07-25 14:33:00,
2013-07-25 10:40:00,65.0,-99.9,-100.00,SSW,197,13.0,16.0,-999,-99.99,,,-99.99,,2013-07-25 14:40:00,
2013-07-25 11:23:00,65.0,-99.9,-100.00,SSW,197,13.0,16.0,-999,-99.99,,,-99.99,,2013-07-25 15:23:00,
2013-07-25 11:33:00,65.0,-99.9,-100.00,SSW,197,13.0,16.0,-999,-99.99,,,-99.99,,2013-07-25 15:33:00,
2013-07-25 11:40:00,65.0,-99.9,-100.00,South,189,16.0,17.0,-999,-99.99,,,-99.99,,2013-07-25 15:40:00,
2013-07-25 12:12:00,65.0,-99.9,-100.00,South,189,16.0,17.0,-999,-99.99,,,-99.99,,2013-07-25 16:12:00,
2013-07-25 12:23:00,65.0,-99.9,-100.00,South,189,16.0,17.0,-999,-99.99,,,-99.99,,2013-07-25 16:23:00,
2013-07-25 12:33:00,65.0,-99.9,-100.00,South,189,16.0,17.0,-999,-99.99,,,-99.99,,2013-07-25 16:33:00,
2013-07-25 12:40:00,65.0,-99.9,-100.00,South,191,18.0,20.0,-999,-99.99,,,-99.99,,2013-07-25 16:40:00,
2013-07-25 13:22:00,65.0,-99.9,-100.00,South,191,18.0,20.0,-999,-99.99,,,-99.99,,2013-07-25 17:22:00,
2013-07-25 13:32:00,65.0,-99.9,-100.00,South,191,18.0,20.0,-999,-99.99,,,-99.99,,2013-07-25 17:32:00,
2013-07-25 13:40:00,66.0,-99.9,-100.00,South,187,16.0,22.0,-999,-99.99,,,-99.99,,2013-07-25 17:40:00,
2013-07-25 14:22:00,66.0,-99.9,-100.00,South,187,16.0,22.0,-999,-99.99,,,-99.99,,2013-07-25 18:22:00,
2013-07-25 14:34:00,66.0,-99.9,-100.00,South,187,16.0,22.0,-999,-99.99,,,-99.99,,2013-07-25 18:34:00,
2013-07-25 14:40:00,66.0,-99.9,-100.00,South,186,20.0,23.0,-999,-99.99,,,-99.99,,2013-07-25 18:40:00,
2013-07-25 15:12:00,66.0,-99.9,-100.00,South,186,20.0,23.0,-999,-99.99,,,-99.99,,2013-07-25 19:12:00,
2013-07-25 15:23:00,66.0,-99.9,-100.00,South,186,20.0,23.0,-999,-99.99,,,-99.99,,2013-07-25 19:23:00,
2013-07-25 15:33:00,66.0,-99.9,-100.00,South,186,20.0,23.0,-999,-99.99,,,-99.99,,2013-07-25 19:33:00,
2013-07-25 15:40:00,66.0,-99.9,-100.00,South,187,21.0,25.0,-999,-99.99,,,-99.99,,2013-07-25 19:40:00,
2013-07-25 16:22:00,66.0,-99.9,-100.00,South,187,21.0,25.0,-999,-99.99,,,-99.99,,2013-07-25 20:22:00,
2013-07-25 16:32:00,66.0,-99.9,-100.00,South,187,21.0,25.0,-999,-99.99,,,-99.99,,2013-07-25 20:32:00,
2013-07-25 16:40:00,67.0,-99.9,-100.00,South,182,22.0,26.0,-999,-99.99,,,-99.99,,2013-07-25 20:40:00,
2013-07-25 17:22:00,67.0,-99.9,-100.00,South,182,22.0,26.0,-999,-99.99,,,-99.99,,2013-07-25 21:22:00,
2013-07-25 17:33:00,67.0,-99.9,-100.00,South,182,22.0,26.0,-999,-99.99,,,-99.99,,2013-07-25 21:33:00,
2013-07-25 17:53:00,67.0,-99.9,-100.00,South,184,22.0,29.0,-999,-99.99,,,-99.99,,2013-07-25 21:53:00,
2013-07-25 18:03:00,67.0,-99.9,-100.00,South,184,22.0,29.0,-999,-99.99,,,-99.99,,2013-07-25 22:03:00,
2013-07-25 18:12:00,67.0,-99.9,-100.00,South,187,23.0,29.0,-999,-99.99,,,-99.99,,2013-07-25 22:12:00,
2013-07-25 18:22:00,67.0,-99.9,-100.00,South,187,23.0,29.0,-999,-99.99,,,-99.99,,2013-07-25 22:22:00,
2013-07-25 18:43:00,67.0,-99.9,-100.00,South,184,22.0,29.0,-999,-99.99,,,-99.99,,2013-07-25 22:43:00,
2013-07-25 18:53:00,67.0,-99.9,-100.00,South,184,22.0,29.0,-999,-99.99,,,-99.99,,2013-07-25 22:53:00,
2013-07-25 19:02:00,67.0,-99.9,-100.00,South,184,22.0,29.0,-999,-99.99,,,-99.99,,2013-07-25 23:02:00,
2013-07-25 19:22:00,67.0,-99.9,-100.00,South,186,22.0,29.0,-999,-99.99,,,-99.99,,2013-07-25 23:22:00,
2013-07-25 19:32:00,67.0,-99.9,-100.00,South,184,25.0,29.0,-999,-99.99,,,-99.99,,2013-07-25 23:32:00,
2013-07-25 19:43:00,67.0,-99.9,-100.00,South,184,25.0,29.0,-999,-99.99,,,-99.99,,2013-07-25 23:43:00,
2013-07-25 19:52:00,67.0,-99.9,-100.00,South,184,25.0,29.0,-999,-99.99,,,-99.99,,2013-07-25 23:52:00,
2013-07-25 20:13:00,68.0,-99.9,-100.00,South,172,21.0,28.0,-999,-99.99,,,-99.99,,2013-07-26 00:13:00,
2013-07-25 20:22:00,68.0,-99.9,-100.00,South,172,21.0,28.0,-999,-99.99,,,-99.99,,2013-07-26 00:22:00,
2013-07-25 20:33:00,68.0,-99.9,-100.00,South,172,23.0,29.0,-999,-99.99,,,-99.99,,2013-07-26 00:33:00,
2013-07-25 20:43:00,68.0,-99.9,-100.00,South,172,23.0,29.0,-999,-99.99,,,-99.99,,2013-07-26 00:43:00,
2013-07-25 20:52:00,68.0,-99.9,-100.00,South,172,23.0,29.0,-999,-99.99,,,-99.99,,2013-07-26 00:52:00,
2013-07-25 21:02:00,68.0,-99.9,-100.00,South,172,23.0,29.0,-999,-99.99,,,-99.99,,2013-07-26 01:02:00,
2013-07-25 21:12:00,67.0,-99.9,-100.00,South,173,24.0,29.0,-999,-99.99,,,-99.99,,2013-07-26 01:12:00,
2013-07-25 21:22:00,67.0,-99.9,-100.00,South,173,24.0,29.0,-999,-99.99,,,-99.99,,2013-07-26 01:22:00,
2013-07-25 21:40:00,67.0,-99.9,-100.00,South,178,22.0,27.0,-999,-99.99,,,-99.99,,2013-07-26 01:40:00,
2013-07-25 21:43:00,68.0,-99.9,-100.00,South,173,25.0,0.0,-999,-99.99,,,-99.99,,2013-07-26 01:43:00,
2013-07-25 22:02:00,67.0,-99.9,-100.00,South,181,25.0,30.0,-999,-99.99,,,-99.99,,2013-07-26 02:02:00,
2013-07-25 22:12:00,67.0,-99.9,-100.00,South,178,22.0,27.0,-999,-99.99,,,-99.99,,2013-07-26 02:12:00,
2013-07-25 22:22:00,67.0,-99.9,-100.00,South,178,22.0,27.0,-999,-99.99,,,-99.99,,2013-07-26 02:22:00,
2013-07-25 22:32:00,67.0,-99.9,-100.00,South,178,22.0,27.0,-999,-99.99,,,-99.99,,2013-07-26 02:32:00,
2013-07-25 23:22:00,62.0,-99.9,-100.00,SSW,201,13.0,14.0,-999,-99.99,,,-99.99,,2013-07-26 03:22:00,
2013-07-25 23:33:00,63.0,-99.9,-100.00,SSW,193,11.0,24.0,-999,-99.99,,,-99.99,,2013-07-26 03:33:00,
2013-07-25 23:40:00,63.0,-99.9,-100.00,South,173,16.0,18.0,-999,-99.99,,,-99.99,,2013-07-26 03:40:00,
2013-07-25 23:44:00,63.0,-99.9,-100.00,SSW,193,11.0,24.0,-999,-99.99,,,-99.99,,2013-07-26 03:44:00,
2013-07-25 23:53:00,63.0,-99.9,-100.00,SSW,193,11.0,24.0,-999,-99.99,,,-99.99,,2013-07-26 03:53:00,